Baku, Azerbaijan

12:40 PM +04 on December 15, 2018 (GMT +0400)
Bina

Weather History for UBBB - March, 2018

Change the Weather History Date:

Thursday, March 1, 2018

  Actual Average Record
Temperature  
Mean Temperature 46 °F -  
Max Temperature 49 °F - - ()
Min Temperature 42 °F - - ()
Degree Days  
Heating Degree Days 20    
Moisture  
Dew Point 43 °F    
Average Humidity 90    
Maximum Humidity 100    
Minimum Humidity 77    
Precipitation  
Precipitation 0.00 in - - ()
Sea Level Pressure  
Sea Level Pressure 29.99 in    
Wind  
Wind Speed 8 mph ()    
Max Wind Speed 20 mph    
Max Gust Speed -    
Visibility 5.5 miles    
Events Rain    
T = Trace of Precipitation, MM = Missing Value Source: Averaged Metar Reports

Daily Weather History Graph

Daily Weather History Graph

Search for Another Location

Airport or City:

Astronomy

Mar. 01, 2018 Rise Set
Actual Time 7:13 AM +04 6:30 PM +04
Civil Twilight 6:46 AM +04 6:58 PM +04
Nautical Twilight 6:15 AM +04 7:29 PM +04
Astronomical Twilight 5:43 AM +04 8:01 PM +04
Moon 5:53 PM +04 (3/1) 6:52 AM +04 (3/1)
Length of Visible Light 12h 11m
Length of Day
11h 16m
Waxing Gibbous, 99% of the Moon is Illuminated
Mar 1
Waxing Gibbous
Mar 2
Full
Mar 9
Last Quarter
Mar 17
New
Mar 24
First Quarter

Hourly Weather History & Observations

Time (+04) Temp. Windchill Dew Point Humidity Pressure Visibility Wind Dir Wind Speed Gust Speed Precip Events Conditions
12:00 AM 42.8 °F 37.5 °F 42.8 °F 100% 30.06 in 2.5 mi NW 9.2 mph - N/A   Overcast
12:30 AM 42.8 °F 37.5 °F 42.8 °F 100% 30.06 in 2.5 mi NW 9.2 mph - N/A   Overcast
1:00 AM 43 °F - 42 °F 92% 30.08 in 1 mi WNW 4.5 mph - -   Mist
1:00 AM 42.8 °F 38.0 °F 42.8 °F 100% 30.06 in 0.9 mi NW 8.1 mph - N/A   Overcast
1:30 AM 42.8 °F 38.6 °F 42.8 °F 100% 30.06 in - NW 6.9 mph - N/A   Overcast
2:00 AM 42.8 °F 38.6 °F 42.8 °F 100% 30.06 in - NW 6.9 mph - N/A   Overcast
2:30 AM 42.8 °F 38.6 °F 42.8 °F 100% 30.06 in 4.3 mi NW 6.9 mph - N/A   Overcast
3:00 AM 42.8 °F 38.6 °F 42.8 °F 100% 30.06 in 5.0 mi NW 6.9 mph - N/A   Overcast
3:30 AM 42.8 °F 38.6 °F 42.8 °F 100% 30.04 in 6.2 mi NW 6.9 mph - N/A   Overcast
4:00 AM 43 °F - 42 °F 92% 30.04 in 6 mi WNW 4.5 mph - -   Overcast
4:00 AM 42.8 °F 38.6 °F 41.0 °F 93% 30.04 in 6.2 mi NW 6.9 mph - N/A   Overcast
4:30 AM 42.8 °F 39.3 °F 41.0 °F 93% 30.04 in 6.2 mi NNW 5.8 mph - N/A   Overcast
5:00 AM 42.8 °F 41.1 °F 41.0 °F 93% 30.04 in 6.2 mi NW 3.5 mph - N/A   Overcast
5:30 AM 42.8 °F 41.1 °F 41.0 °F 93% 30.04 in 6.2 mi West 3.5 mph - N/A   Overcast
6:00 AM 42.8 °F - 42.8 °F 100% 30.01 in 6.2 mi NW 2.3 mph - N/A   Overcast
6:30 AM 42.8 °F - 42.8 °F 100% 30.04 in 6.2 mi West 2.3 mph - N/A   Overcast
7:00 AM 43 °F - 41 °F 92% 30.03 in 6 mi Calm Calm - -   Overcast
7:00 AM 42.8 °F - 42.8 °F 100% 30.04 in 6.2 mi NNW 2.3 mph - N/A   Overcast
7:30 AM 42.8 °F - 42.8 °F 100% 30.04 in 5.0 mi NE 2.3 mph - N/A   Overcast
8:00 AM 44.6 °F 43.1 °F 42.8 °F 93% 30.04 in 5.0 mi SE 3.5 mph - N/A   Overcast
8:30 AM 44.6 °F 43.1 °F 42.8 °F 93% 30.04 in 5.0 mi SSE 3.5 mph - N/A   Overcast
9:00 AM 44.6 °F 41.4 °F 42.8 °F 93% 30.04 in 5.0 mi SSE 5.8 mph - N/A   Overcast
9:30 AM 44.6 °F 40.2 °F 42.8 °F 93% 30.04 in 4.3 mi South 8.1 mph - N/A   Overcast
10:00 AM 45 °F - 43 °F 90% 30.03 in 2 mi SE 4.5 mph - -   Mist
10:00 AM 46.4 °F 41.9 °F 42.8 °F 87% 30.01 in 4.3 mi SSE 9.2 mph - N/A   Overcast
10:30 AM 46.4 °F 42.4 °F 44.6 °F 93% 30.01 in 5.0 mi SE 8.1 mph - N/A   Overcast
11:00 AM 48.2 °F - 44.6 °F 87% 30.01 in 6.2 mi SSE 10.4 mph - N/A   Overcast
11:30 AM 46.4 °F 40.4 °F 42.8 °F 87% 29.98 in 6.2 mi South 13.8 mph - N/A   Overcast
12:00 PM 46.4 °F 40.1 °F 42.8 °F 87% 29.98 in 6.2 mi South 15.0 mph - N/A   Overcast
12:30 PM 48.2 °F - 42.8 °F 82% 29.98 in 6.2 mi South 13.8 mph - N/A   Overcast
1:00 PM 48 °F - 44 °F 79% 29.96 in 6 mi SE 15.7 mph - -   Overcast
1:00 PM 48.2 °F - 44.6 °F 87% 29.95 in 6.2 mi South 15.0 mph - N/A   Overcast
1:30 PM 48.2 °F - 42.8 °F 82% 29.95 in 6.2 mi South 16.1 mph - N/A   Overcast
2:00 PM 48.2 °F - 44.6 °F 87% 29.92 in 6.2 mi South 17.3 mph - N/A   Overcast
2:30 PM 48.2 °F - 44.6 °F 87% 29.92 in 6.2 mi South 18.4 mph - N/A   Overcast
3:00 PM 50.0 °F - 44.6 °F 82% 29.89 in 6.2 mi South 18.4 mph - N/A   Overcast
3:30 PM 50.0 °F - 44.6 °F 82% 29.89 in 6.2 mi South 19.6 mph - N/A   Mostly Cloudy
4:00 PM 49 °F - 44 °F 77% 29.89 in 6 mi SE 17.9 mph - -   Overcast
4:00 PM 50.0 °F - 44.6 °F 82% 29.89 in 6.2 mi South 18.4 mph - N/A   Mostly Cloudy
4:30 PM 50.0 °F - 44.6 °F 82% 29.89 in 6.2 mi South 19.6 mph - N/A   Overcast
5:00 PM 50.0 °F - 44.6 °F 82% 29.89 in 6.2 mi South 16.1 mph - N/A   Overcast
6:00 PM 48.2 °F - 44.6 °F 87% 29.89 in 6.2 mi South 15.0 mph - N/A   Overcast
6:30 PM 48.2 °F - 44.6 °F 87% 29.89 in 6.2 mi South 12.7 mph - N/A   Overcast
7:00 PM 47 °F - 44 °F 84% 29.90 in 6 mi SE 11.2 mph - -   Overcast
7:00 PM 48.2 °F - 44.6 °F 87% 29.92 in 6.2 mi South 12.7 mph - N/A   Overcast
7:30 PM 48.2 °F - 44.6 °F 87% 29.92 in 6.2 mi South 9.2 mph - N/A   Overcast
8:00 PM 48.2 °F - 46.4 °F 93% 29.95 in 6.2 mi South 4.6 mph - N/A   Overcast
8:30 PM 48.2 °F - 46.4 °F 93% 29.95 in 6.2 mi SSW 3.5 mph - N/A   Overcast
9:00 PM 48.2 °F - 46.4 °F 93% 29.95 in 6.2 mi WSW 4.6 mph - N/A   Overcast
9:30 PM 48.2 °F - 44.6 °F 87% 29.98 in 6.2 mi WNW 6.9 mph - N/A   Overcast
10:00 PM 46 °F - 43 °F 84% 29.99 in 6 mi NNW 4.5 mph - -   Overcast
10:00 PM 46.4 °F 42.4 °F 42.8 °F 87% 29.98 in 6.2 mi North 8.1 mph - N/A Rain Light Rain
10:30 PM 46.4 °F 45.2 °F 42.8 °F 87% 29.98 in 6.2 mi NE 3.5 mph - N/A   Overcast
11:00 PM 46.4 °F 45.2 °F 42.8 °F 87% 29.98 in 6.2 mi NE 3.5 mph - N/A   Overcast
11:30 PM 46.4 °F 42.9 °F 42.8 °F 87% 29.98 in 6.2 mi North 6.9 mph - N/A   Overcast